Total_Precipitation_Accumulation
0.13 0.15 0.23 0.25 0.23 0.24 0.25 0.28 0.40 0.33 0.36 0.48 0.49 0.51 0.50 0.44 0.34 0.28 0.24 0.22 0.21 0.23 0.26 0.27 0.28 0.29 0.31 0.37 0.39 0.41 0.49 0.60 0.62 0.55 0.50 0.44 0.37 0.29 0.28 0.28 0.25 0.29 0.37 0.44
0.13 0.17 0.23 0.24 0.21 0.19 0.17 0.17 0.21 0.24 0.30 0.32 0.30 0.35 0.38 0.35 0.34 0.26 0.25 0.23 0.19 0.19 0.18 0.21 0.22 0.20 0.22 0.25 0.27 0.30 0.36 0.43 0.48 0.49 0.45 0.41 0.34 0.28 0.26 0.25 0.26 0.30 0.36 0.41
0.19 0.19 0.24 0.31 0.24 0.18 0.14 0.11 0.17 0.30 0.37 0.31 0.29 0.31 0.33 0.28 0.25 0.22 0.17 0.14 0.13 0.13 0.13 0.12 0.11 0.12 0.17 0.20 0.22 0.29 0.34 0.37 0.43 0.49 0.47 0.38 0.28 0.27 0.28 0.29 0.32 0.39 0.38 0.37
0.27 0.32 0.42 0.28 0.15 0.14 0.13 0.10 0.09 0.19 0.24 0.26 0.24 0.23 0.20 0.18 0.16 0.14 0.10 0.08 0.07 0.06 0.07 0.07 0.07 0.10 0.15 0.19 0.26 0.32 0.37 0.42 0.46 0.49 0.50 0.46 0.39 0.38 0.41 0.44 0.45 0.48 0.46 0.41
0.33 0.41 0.33 0.19 0.17 0.17 0.19 0.18 0.12 0.15 0.18 0.19 0.19 0.19 0.19 0.15 0.14 0.12 0.07 0.07 0.07 0.06 0.06 0.08 0.11 0.15 0.22 0.30 0.38 0.41 0.43 0.45 0.48 0.54 0.62 0.63 0.57 0.51 0.51 0.54 0.51 0.52 0.51 0.48
0.39 0.49 0.40 0.25 0.21 0.20 0.22 0.37 0.27 0.23 0.22 0.19 0.17 0.26 0.27 0.13 0.08 0.08 0.09 0.09 0.08 0.09 0.10 0.13 0.16 0.21 0.30 0.39 0.47 0.51 0.50 0.47 0.50 0.56 0.65 0.72 0.72 0.65 0.60 0.62 0.56 0.52 0.49 0.51
0.46 0.54 0.36 0.24 0.23 0.25 0.42 0.52 0.36 0.34 0.31 0.26 0.27 0.27 0.20 0.12 0.08 0.07 0.08 0.09 0.09 0.12 0.15 0.18 0.20 0.26 0.35 0.45 0.51 0.51 0.50 0.53 0.60 0.67 0.73 0.77 0.83 0.83 0.79 0.72 0.67 0.63 0.59 0.60
0.61 0.69 0.59 0.37 0.31 0.38 0.45 0.39 0.38 0.37 0.38 0.34 0.31 0.28 0.22 0.17 0.12 0.09 0.07 0.08 0.10 0.16 0.20 0.21 0.23 0.31 0.41 0.47 0.51 0.56 0.59 0.65 0.70 0.77 0.75 0.78 0.99 1.03 1.05 0.99 0.85 0.79 0.76 0.75
0.75 0.71 0.53 0.50 0.51 0.52 0.49 0.46 0.44 0.33 0.29 0.28 0.27 0.26 0.29 0.27 0.19 0.15 0.13 0.13 0.15 0.20 0.26 0.33 0.39 0.47 0.56 0.54 0.60 0.69 0.75 0.81 0.80 0.79 0.85 0.94 1.02 1.05 1.05 1.03 0.96 0.87 0.86 0.84
0.77 0.71 0.64 0.53 0.39 0.43 0.53 0.48 0.36 0.27 0.25 0.24 0.22 0.20 0.19 0.18 0.16 0.15 0.15 0.18 0.19 0.24 0.35 0.46 0.55 0.58 0.60 0.62 0.70 0.82 0.90 0.95 0.97 0.95 0.92 0.94 1.07 1.08 1.05 0.99 0.97 0.95 0.93 0.89
0.63 0.65 0.67 0.59 0.38 0.30 0.35 0.31 0.23 0.22 0.23 0.22 0.18 0.14 0.11 0.09 0.10 0.12 0.13 0.17 0.24 0.32 0.42 0.46 0.55 0.67 0.72 0.82 0.96 1.02 0.99 0.99 1.02 1.05 1.10 1.12 1.10 1.09 1.05 1.03 0.92 0.90 0.91 0.92
0.55 0.51 0.55 0.51 0.39 0.31 0.26 0.22 0.20 0.22 0.25 0.21 0.17 0.17 0.15 0.12 0.12 0.13 0.16 0.22 0.29 0.39 0.50 0.57 0.69 0.82 0.89 1.00 1.15 1.28 1.22 1.11 1.11 1.12 1.15 1.19 1.17 1.08 0.95 0.86 0.74 0.70 0.73 0.72
0.37 0.35 0.37 0.36 0.34 0.32 0.26 0.24 0.22 0.22 0.24 0.23 0.19 0.16 0.17 0.17 0.17 0.19 0.22 0.28 0.33 0.41 0.51 0.60 0.68 0.81 0.90 0.97 1.04 1.15 1.18 1.16 1.15 1.12 1.14 1.19 1.21 1.20 1.15 0.97 0.78 0.65 0.61 0.58
0.30 0.32 0.35 0.31 0.33 0.36 0.32 0.29 0.27 0.23 0.25 0.26 0.23 0.20 0.17 0.17 0.18 0.22 0.28 0.33 0.36 0.38 0.45 0.57 0.69 0.75 0.80 0.90 0.99 1.04 1.05 1.03 1.02 1.02 1.01 1.03 1.06 1.09 1.13 1.07 0.96 0.81 0.66 0.56
0.27 0.27 0.34 0.33 0.33 0.39 0.39 0.33 0.31 0.29 0.31 0.30 0.27 0.24 0.25 0.27 0.29 0.30 0.33 0.35 0.39 0.41 0.43 0.55 0.70 0.76 0.80 0.91 0.97 0.96 0.96 0.93 0.88 0.90 0.88 0.93 0.96 0.98 1.01 1.04 0.99 0.89 0.74 0.65
0.36 0.32 0.34 0.38 0.39 0.41 0.37 0.35 0.35 0.31 0.28 0.27 0.28 0.30 0.30 0.34 0.36 0.39 0.40 0.41 0.51 0.55 0.56 0.65 0.73 0.79 0.88 0.95 0.96 0.95 0.91 0.87 0.89 0.86 0.82 0.86 0.92 0.93 0.92 0.95 0.95 0.89 0.74 0.65
0.46 0.47 0.48 0.48 0.51 0.47 0.44 0.39 0.35 0.32 0.27 0.26 0.28 0.27 0.27 0.32 0.40 0.45 0.44 0.45 0.50 0.53 0.60 0.73 0.77 0.81 0.94 1.05 1.05 1.01 0.92 0.81 0.83 0.84 0.80 0.80 0.86 0.87 0.84 0.85 0.85 0.79 0.66 0.56
0.51 0.50 0.50 0.51 0.54 0.56 0.55 0.50 0.45 0.43 0.40 0.40 0.40 0.36 0.36 0.39 0.45 0.50 0.50 0.50 0.53 0.52 0.57 0.69 0.80 0.87 0.94 1.11 1.18 1.08 0.94 0.82 0.75 0.75 0.75 0.74 0.76 0.82 0.81 0.78 0.78 0.73 0.64 0.56
0.49 0.50 0.50 0.51 0.50 0.53 0.57 0.54 0.46 0.41 0.39 0.41 0.46 0.45 0.43 0.45 0.49 0.50 0.52 0.56 0.62 0.65 0.62 0.65 0.78 0.83 0.87 0.99 1.12 1.04 0.88 0.79 0.71 0.67 0.71 0.71 0.73 0.75 0.73 0.71 0.73 0.70 0.60 0.56
0.54 0.56 0.56 0.56 0.55 0.57 0.60 0.56 0.50 0.45 0.43 0.45 0.48 0.50 0.49 0.46 0.47 0.49 0.51 0.54 0.60 0.70 0.72 0.71 0.66 0.67 0.76 0.88 1.00 0.95 0.87 0.78 0.69 0.62 0.65 0.70 0.70 0.67 0.60 0.58 0.62 0.60 0.54 0.49
0.57 0.58 0.59 0.59 0.60 0.59 0.60 0.59 0.55 0.53 0.50 0.51 0.53 0.55 0.57 0.54 0.51 0.55 0.61 0.61 0.57 0.61 0.63 0.68 0.63 0.58 0.62 0.79 0.90 0.85 0.81 0.79 0.72 0.63 0.66 0.72 0.68 0.60 0.51 0.50 0.51 0.49 0.48 0.47
0.53 0.54 0.56 0.58 0.58 0.53 0.45 0.44 0.44 0.44 0.45 0.46 0.49 0.54 0.61 0.63 0.61 0.60 0.58 0.63 0.62 0.64 0.61 0.60 0.58 0.56 0.56 0.65 0.72 0.78 0.76 0.77 0.73 0.65 0.62 0.64 0.64 0.58 0.49 0.47 0.48 0.45 0.43 0.45
0.40 0.38 0.38 0.39 0.42 0.42 0.31 0.27 0.28 0.31 0.34 0.39 0.44 0.57 0.69 0.69 0.70 0.75 0.69 0.58 0.59 0.60 0.57 0.54 0.52 0.49 0.47 0.48 0.55 0.62 0.64 0.69 0.68 0.61 0.56 0.52 0.53 0.48 0.45 0.46 0.47 0.44 0.43 0.42
0.27 0.24 0.23 0.22 0.27 0.32 0.32 0.31 0.28 0.27 0.29 0.33 0.36 0.46 0.66 0.75 0.70 0.63 0.61 0.59 0.58 0.52 0.49 0.46 0.41 0.38 0.37 0.38 0.48 0.55 0.58 0.62 0.63 0.61 0.56 0.51 0.47 0.44 0.45 0.46 0.44 0.41 0.42 0.39
0.15 0.16 0.15 0.18 0.25 0.31 0.36 0.38 0.35 0.33 0.36 0.38 0.37 0.42 0.57 0.71 0.75 0.63 0.53 0.51 0.53 0.45 0.42 0.42 0.38 0.37 0.38 0.42 0.50 0.56 0.58 0.58 0.59 0.61 0.56 0.50 0.45 0.42 0.42 0.45 0.44 0.44 0.43 0.38
0.11 0.12 0.14 0.18 0.26 0.35 0.41 0.48 0.51 0.51 0.57 0.60 0.53 0.51 0.57 0.61 0.64 0.61 0.56 0.50 0.47 0.43 0.39 0.40 0.38 0.37 0.38 0.42 0.48 0.52 0.54 0.56 0.57 0.58 0.55 0.52 0.48 0.45 0.45 0.44 0.42 0.39 0.34 0.30
0.14 0.16 0.22 0.26 0.29 0.36 0.45 0.54 0.65 0.74 0.82 0.90 0.89 0.79 0.71 0.66 0.62 0.58 0.55 0.52 0.48 0.44 0.41 0.41 0.41 0.40 0.39 0.42 0.47 0.53 0.57 0.57 0.53 0.50 0.50 0.51 0.51 0.47 0.43 0.40 0.37 0.35 0.32 0.32